[TLELIST] Archives

 

Current TLEs

March 21st 2008 PST

HST 1 20580U 90037B 08079.67564565 .00000396 00000-0 17827-4 0 967 2 20580 028.4678 187.0286 0003952 156.7919 203.2848 15.00351632781527 ISS (ZARYA) 1 25544U 98067A 08080.50692138 -.00128966 00000-0 -81262-3 0 1493 2 25544 051.6373 113.5392 0001558 314.3046 192.6308 15.76220567534531 CXO 1 25867U 99040B 08072.33333333 .00000224 00000-0 10000-3 0 1771 2 25867 063.3008 082.9471 6662777 280.1753 352.0919 00.37803691 3265 ____________________________________________________________________ These 2-Line ...Continue Reading

Current TLEs

March 20th 2008 PST

HST 1 20580U 90037B 08077.61351940 +.00000424 +00000-0 +20048-4 0 01041 2 20580 028.4678 200.4761 0003911 135.2954 224.7951 15.00350856781217 ISS (ZARYA) 1 25544U 98067A 08079.49260323 .00007433 00000-0 50111-4 0 1422 2 25544 051.6395 118.7670 0000825 288.2892 218.7332 15.76346105534371 CXO 1 25867U 99040B 08072.33333333 .00000224 00000-0 10000-3 0 1771 2 25867 063.3008 082.9471 6662777 280.1753 352.0919 00.37803691 3265 ____________________________________________________________________ These 2-Line ...Continue Reading

Current TLEs

March 19th 2008 PST

HST 1 20580U 90037B 08076.61571588 .00000420 00000-0 19736-4 0 948 2 20580 028.4677 206.9820 0003919 124.5240 235.5722 15.00350303781066 ISS (ZARYA) 1 25544U 98067A 08078.53111569 .00002767 00000-0 21227-4 0 1367 2 25544 051.6391 123.7202 0001138 267.1200 179.9473 15.76316268534226 CXO 1 25867U 99040B 08072.33333333 .00000224 00000-0 10000-3 0 1771 2 25867 063.3008 082.9471 6662777 280.1753 352.0919 00.37803691 3265 ____________________________________________________________________ These 2-Line ...Continue Reading

Current TLEs

March 18th 2008 PST

HST 1 20580U 90037B 08076.61571588 .00000420 00000-0 19736-4 0 948 2 20580 028.4677 206.9820 0003919 124.5240 235.5722 15.00350303781066 ISS (ZARYA) 1 25544U 98067A 08077.52717446 -.00000506 00000-0 90048-6 0 1292 2 25544 051.6394 128.8961 0000658 290.9053 215.2106 15.76303035534060 CXO 1 25867U 99040B 08072.33333333 .00000224 00000-0 10000-3 0 1771 2 25867 063.3008 082.9471 6662777 280.1753 352.0919 00.37803691 3265 ____________________________________________________________________ These 2-Line ...Continue Reading

Current TLEs

March 17th 2008 PST

HST 1 20580U 90037B 08074.75314873 +.00000401 +00000-0 +18248-4 0 01030 2 20580 028.4680 219.1344 0003865 103.6025 256.4993 15.00349304780785 ISS (ZARYA) 1 25544U 98067A 08076.51194446 .00018887 00000-0 12024-3 0 1238 2 25544 051.6378 134.1254 0001149 260.1337 240.5524 15.76479734533904 CXO 1 25867U 99040B 08072.33333333 .00000224 00000-0 10000-3 0 1771 2 25867 063.3008 082.9471 6662777 280.1753 352.0919 00.37803691 3265 ____________________________________________________________________ These 2-Line ...Continue Reading

Current TLEs

March 16th 2008 PST

HST 1 20580U 90037B 08073.75534345 .00000418 00000-0 19564-4 0 924 2 20580 028.4679 225.6413 0003876 092.4138 267.6893 15.00348907780639 ISS (ZARYA) 1 25544U 98067A 08075.50902778 .00014972 00000-0 96375-4 0 1177 2 25544 051.6376 139.2941 0001173 244.2999 320.7279 15.76436500533749 CXO 1 25867U 99040B 08072.33333333 .00000224 00000-0 10000-3 0 1771 2 25867 063.3008 082.9471 6662777 280.1753 352.0919 00.37803691 3265 ____________________________________________________________________ These 2-Line ...Continue Reading

Current TLEs

March 15th 2008 PST

HST 1 20580U 90037B 08073.75534345 .00000418 00000-0 19564-4 0 924 2 20580 028.4679 225.6413 0003876 092.4138 267.6893 15.00348907780639 ISS (ZARYA) 1 25544U 98067A 08074.48202803 .00018107 00000-0 11584-3 0 1100 2 25544 051.6391 144.5867 0001100 237.8458 254.9002 15.76404231533580 CXO 1 25867U 99040B 08072.33333333 .00000224 00000-0 10000-3 0 1771 2 25867 063.3008 082.9471 6662777 280.1753 352.0919 00.37803691 3265 ____________________________________________________________________ These 2-Line ...Continue Reading

Current TLEs

March 14th 2008 PST

HST 1 20580U 90037B 08071.82625173 +.00000381 +00000-0 +16650-4 0 00966 2 20580 028.4682 238.2205 0003864 072.0656 288.0354 15.00347678780349 ISS (ZARYA) 1 25544U 98067A 08073.33259575 .00028716 00000-0 18138-3 0 1043 2 25544 051.6370 150.5072 0001279 243.0751 202.2610 15.76371282533405 CXO 1 25867U 99040B 08072.33333333 .00000224 00000-0 10000-3 0 1771 2 25867 063.3008 082.9471 6662777 280.1753 352.0919 00.37803691 3265 ____________________________________________________________________ These 2-Line ...Continue Reading

Current TLEs

March 13th 2008 PST

HST 1 20580U 90037B 08070.82844427 +.00000404 +00000-0 +18469-4 0 01046 2 20580 028.4681 244.7275 0003813 061.5784 298.5192 15.00347384780199 ISS (ZARYA) 1 25544U 98067A 08072.52769676 .00027591 00000-0 17483-3 0 985 2 25544 051.6370 154.6574 0001377 238.9578 315.6034 15.76321575533270 CXO 1 25867U 99040B 08072.33333333 .00000224 00000-0 10000-3 0 1771 2 25867 063.3008 082.9471 6662777 280.1753 352.0919 00.37803691 3265 ____________________________________________________________________ These 2-Line ...Continue Reading

Current TLEs

March 12th 2008 PST

HST 1 20580U 90037B 08071.16104670 .00000404 00000-0 18482-4 0 902 2 20580 028.4681 242.5586 0003840 064.8371 295.2613 15.00347536780245 ISS (ZARYA) 1 25544U 98067A 08071.36697444 .00026865 00000-0 17085-3 0 902 2 25544 051.6387 160.6387 0002052 220.5225 222.9055 15.76254185533099 CXO 1 25867U 99040B 08069.70833333 .00000328 00000-0 10000-3 0 1767 2 25867 063.2784 083.0452 6661577 280.1812 354.7697 00.37809370 3250 ____________________________________________________________________ These 2-Line ...Continue Reading
  • This mailing list is a public mailing list - anyone may join or leave, at any time.
  • This mailing list is announce-only.

International Space Station (ISS) / Hubble Space Telescope (HST) / Chandra X-Ray Observatory Orbital Data via EMAIL

Privacy Policy:

Private list